SCP
0 0 0 0 0 0 0 0 0 0 0 0 0 0 0 0 0 0 0 0 0 0 0 0 0 0 0 0 0 0 0 0 0 0 0 0 0 0 0 0 0 0 0 0
0 0 0 0 0 0 0 0 0 0 0 0 0 0 0 0 0 0 0 0 0 0 0 0 0 0 0 0 0 0 0 0 0 0 0 0 0 0 0 0 0 0 0 0
0 0 0 0 0 0 0 0 0 0 0 0 0 0 0 0 0 0 0 0 0 0 0 0 0 0 0 0 0 0 0 0 0 0 0 0 0 0 0 0 0 0 0 0
0 0 0 0 0 0 0 0 0 0 0 0 0 -0 -0 0 0 0 0 0 0 0 0 0 0 0 0 0 0 0 0 0 0 0 0 0 0 0 0 0 0 0 0 0
0 0 0 0 0 0 0 0 0 0 0 0 0 0 -0 -0 0 0 0 0 0 0 0 0 0 0 0 0 0 0 0 0 0 0 0 0 0 0 0 0 0 0 0 0
0 0 0 0 0 0 0 0 0 0 0 0 0 0 -0 -0 0 0 0 0 0 0 0 0 0 0 0 0 0 0 0 0 0 0 0 0 0 0 0 0 0 0 0 0
0 0 0 0 0 0 0 0 0 0 0 0 0 0 0 -0 -0 0 0 0 0 0 0 0 0 0 0 0 0 0 0 0 0 0 0 0 0 0 0 0 0 0 0 0
0 0 0 0 0 0 0 0 0 0 0 0 0 0 0 0 0 0 0 0 0 0 0 0 0 0 0 0 0 0 0 0 0 0 0 0 0 0 0 0 0 0 0 0
0 0 0 0 0 0 0 0 0 0 0 0 0 0 0 0 0 0 0 0 0 0 0 0 0 0 0 0 0 0 0 0 0 0 0 0 0 0 0 0 0 0 0 0
0 0 0 0 0 0 0 0 0 0 0 0 0 0 0 0 -0 0 0 0 0 0 0 0 0 0 0 0 0 0 0 0 0 0 0 0 0 0 0 0 0 0 0 0
0 0 0 0 0 0 0 0 0 0 0 0 0 0 0 0 0 0 0 0 0 0 0 0 0 0 0 0 0 0 0 0 0 0 0 0 0 0 0 0 0 0 0 0
0 0 0 0 0 0 0 0 0 0 0 0 0 0 0 0 0 0 -0 0 0 0 0 0 0 0 0 0 0 0 0 0 0 0 0 0 0 0 0 0 0 0 0 0
0 0 0 0 0 0 0 0 0 0 0 0 0 0 0 0 0 0 0 0 0 0 0 0 0 0 0 0 0 0 0 0 0 0 0 0 0 0 0 0 0 0 0 0
0 0 0 0 0 0 0 0 0 0 0 0 0 0 0 0 0 0 0 0 0 0 0 0 0 0 0 0 0 0 0 0 0 0 0 0 0 0 0 0 0 0 0 0
0 0 0 0 0 0 0 0 0 0 0 0 0 0 0 0 0 0 0 0 0 0 0 0 0 0 0 0 0 0 0 0 0 0 0 0 0 0 0 0 0 0 0 0
0 0 0 0 0 0 0 0 0 0 0 0 0 0 0 0 0 0 0 0 0 0 0 0 0 0 0 0 0 0 0 0 0 0 0 0 0 0 0 0 0 0 0 0
0 0 0 0 0 0 0 0 0 0 0 0 0 0 0 0 -0 -0 0 0 0 0 0 0 0 0 0 0 0 0 0 0 0 0 0 0 0 0 0 0 0 0 0 0
0 0 0 0 -0 0 0 0 0 0 0 0 0 0 0 0 -0 -0 -0 0 0 0 0 0 0 0 0 0 0 0 0 0 0 0 0 0 0 0 0 0 0 0 0 0
0 0 0 0 0 0 -0 0 0 0 0 0 0 0 0 0 0 -0 0 0 0 0 0 0 0 0 0 0 0 0 0 0 0 0 0 0 0 0 0 0 0 0 0 0
0 0 0 0 0 -0 -0 -0 0 0 0 0 0 0 0 0 0 0 0 0 0 0 0 0 0 0 0 0 0 0 0 0 0 0 0 0 0 0 0 0 0 0 0 0
0 0 0 0 0 -0 -0 -0 0 0 0 0 0 0 0 0 0 -0 0 0 0 0 0 0 0 0 0 0 0 0 0 0 0 0 0 0 0 0 0 0 0 0 0 0
0 0 0 0 0 0 0 0 0 0 0 0 0 0 0 0 0 0 0 0 0 0 0 0 0 0 0 0 0 0 0 0 0 0 0 0 0 0 0 0 0 0 0 0
0 0 0 0 0 0 0 0 0 0 0 0 0 0 0 0 0 0 0 0 0 0 0 0 0 0 0 0 0 0 0 0 0 0 0 0 0 0 0 0 0 0 0 0
0 0 0 0 0 0 0 0 0 0 0 0 0 0 0 0 0 0 0 0 0 0 0 0 0 0 0 0 0 0 0 0 0 0 0 0 0 0 0 0 0 0 0 0
0 0 0 0 0 0 0 0 0 0 0 0 0 0 0 0 0 0 0 0 0 0 0 0 0 0 0 0 0 0 0 0 0 0 0 0 0 0 0 0 0 0 0 0
0 0 0 0 0 0 0 0 0 0 0 0 0 0 0 0 0 0 0 0 0 0 0 0 0 0 0 0 0 0 0 0 0 0 0 0 0 0 0 0 0 0 0 0
Wind_Speed_500mb
17 10 31 33 25 15 6 14 19 3 5 2 14 34 18 45 52 48 63 72 81 93 91 85 88 91 91 97 96 92 90 87 81 80 80 76 74 69 66 62 56 53 52 50
1 34 7 11 18 32 25 25 28 6 6 3 18 41 24 31 55 49 61 77 83 93 98 91 91 94 99 98 100 99 98 95 90 87 82 78 78 76 69 66 65 60 57 55
33 11 39 24 15 30 38 43 26 18 6 11 8 41 33 23 56 59 68 76 88 93 95 103 102 100 101 103 104 103 104 102 97 93 88 85 83 81 81 80 76 69 63 60
26 47 9 16 36 30 40 26 24 24 10 20 8 30 42 19 39 37 68 69 79 101 107 94 101 105 107 105 104 100 103 106 105 97 97 93 92 91 91 87 79 72 68 65
18 15 33 40 37 29 28 12 16 29 29 25 34 12 44 23 37 49 35 67 80 103 111 116 105 99 106 107 104 105 100 101 104 101 102 96 95 91 82 84 82 76 71 69
17 5 14 16 32 36 10 17 12 16 24 23 56 32 56 38 50 36 29 58 84 96 114 113 123 117 109 104 106 106 106 102 97 95 98 100 95 93 86 86 83 79 76 71
17 27 6 9 12 17 22 15 8 9 11 25 21 27 54 17 31 48 32 48 75 89 98 111 114 111 108 108 109 108 106 102 96 92 98 99 92 91 88 84 82 81 75 73
24 11 43 18 43 10 25 26 10 14 13 21 7 22 41 32 75 88 74 75 67 80 88 94 114 116 110 109 107 106 104 100 99 98 97 92 88 88 86 86 81 81 75 71
17 17 4 6 10 31 14 22 29 22 12 8 10 19 32 34 27 35 64 69 76 71 79 91 102 106 115 116 109 101 103 102 98 94 94 92 86 85 85 85 82 79 74 71
7 8 11 12 10 27 36 8 14 20 31 49 18 27 31 9 37 46 39 54 75 89 63 74 86 90 101 110 107 100 96 99 93 93 92 91 85 81 80 84 84 78 73 68
10 9 5 16 26 35 19 23 19 8 12 23 30 24 37 38 21 34 41 72 84 81 90 58 73 77 83 101 100 95 94 97 96 91 87 88 84 83 82 81 80 78 72 66
46 8 25 43 6 27 37 40 47 21 36 16 24 46 7 20 36 40 47 63 78 73 73 62 54 65 71 85 91 94 90 93 88 84 83 80 80 82 80 78 78 75 70 64
25 19 17 8 7 10 30 47 44 46 9 43 35 38 15 12 19 47 45 61 64 57 57 62 56 54 67 76 84 88 85 84 84 83 78 73 72 73 73 73 73 71 66 63
42 11 17 28 8 10 24 39 49 44 28 43 38 66 43 17 20 23 42 51 45 47 56 60 59 59 54 56 75 87 80 74 74 76 74 74 71 70 70 69 68 65 63 62
15 22 21 39 38 28 33 47 56 52 65 34 65 51 47 36 35 26 47 47 43 49 50 53 61 62 52 44 47 60 67 67 67 69 69 69 67 66 64 62 61 61 61 62
8 14 10 36 28 37 49 43 48 60 66 59 75 61 17 23 30 28 46 42 47 56 54 54 59 61 59 54 50 50 53 55 56 58 58 59 59 58 56 55 53 54 56 58
10 7 3 13 11 23 37 68 52 61 61 63 56 81 22 18 21 23 45 53 55 53 55 57 60 58 55 54 51 50 51 51 50 49 48 47 45 45 45 45 44 47 47 48
9 7 5 13 5 32 19 26 61 64 55 60 70 48 44 32 65 36 41 46 53 53 53 55 56 52 49 49 50 49 48 47 46 45 43 41 40 39 38 37 35 36 37 39
28 13 8 7 15 36 59 14 32 38 69 62 68 57 46 52 42 80 53 63 63 57 49 46 49 53 53 51 51 49 47 44 43 41 39 38 37 35 33 31 32 34 36 36
28 28 18 6 12 35 7 8 54 28 55 54 63 59 56 32 16 30 88 94 60 54 50 54 54 52 49 48 44 42 42 42 41 39 36 34 33 30 29 31 34 35 34 31
11 17 37 32 23 17 13 14 45 30 23 34 75 74 64 32 59 68 64 61 54 56 60 59 55 52 49 46 45 44 44 44 39 37 37 35 31 30 29 29 28 27 27 28
25 17 19 24 21 27 13 26 49 27 26 4 47 69 66 93 84 75 66 68 63 68 65 61 58 54 49 45 43 44 41 39 38 35 31 31 29 27 25 25 26 26 25 25
13 16 10 21 13 8 29 12 62 15 21 19 46 77 87 87 92 95 73 73 75 74 75 68 58 53 49 49 47 44 43 38 35 32 30 28 26 23 22 21 19 17 14 13
10 10 14 2 13 19 30 57 40 29 23 29 33 32 48 83 97 100 73 69 72 74 73 68 59 52 51 48 42 36 36 35 32 29 28 27 24 23 22 20 18 15 13 10
11 11 14 21 16 12 28 24 28 34 31 32 26 33 36 70 70 83 85 83 78 71 65 63 59 55 50 47 44 40 36 34 35 37 36 36 33 30 27 23 19 14 10 8
10 15 14 18 1 4 8 19 25 27 25 21 25 26 34 64 81 75 78 77 74 69 66 64 59 56 54 49 48 49 47 40 39 42 40 36 31 27 23 17 13 8 1 5
Wind_Direction_500mb
184 203 215 214 217 235 334 245 243 145 187 281 246 271 250 257 260 247 253 249 245 242 245 243 240 234 233 234 232 232 230 228 225 224 226 226 227 225 227 228 228 229 231 235
18 241 166 198 212 233 241 262 263 311 234 294 278 272 251 244 258 248 248 251 250 247 245 242 243 236 232 234 235 232 233 231 230 229 230 232 233 232 235 235 234 232 233 235
213 221 200 207 212 231 237 240 252 253 5 254 319 283 265 241 257 252 255 252 254 255 252 246 243 241 236 233 234 234 232 233 232 232 231 233 235 237 237 238 235 234 236 237
230 236 198 196 225 207 242 217 246 267 277 262 150 278 262 221 245 241 237 237 244 251 250 250 247 242 240 238 235 236 235 234 234 231 232 232 233 233 235 237 238 238 238 238
219 181 208 223 218 207 237 169 204 231 246 260 251 258 276 193 235 245 234 232 234 248 253 246 243 245 244 240 237 235 235 234 234 232 234 234 234 237 240 240 241 241 241 241
224 184 197 212 215 206 171 251 288 257 233 235 239 219 273 241 240 264 232 236 236 240 251 245 245 247 247 241 237 235 233 233 233 232 233 235 235 236 237 239 240 242 243 242
211 231 246 218 184 208 201 197 233 231 213 243 235 221 243 253 252 234 242 238 242 245 249 245 242 239 238 236 235 234 234 233 233 233 234 235 237 237 239 241 243 244 243 244
203 274 212 183 216 197 205 198 205 223 227 251 214 216 238 238 243 250 257 252 247 245 244 238 242 239 235 232 234 233 233 233 233 232 237 236 238 238 239 242 244 246 247 248
178 243 204 161 167 186 190 224 226 274 248 264 218 272 287 264 255 248 244 240 239 250 248 244 242 241 235 231 233 233 233 232 234 234 235 238 238 237 239 241 244 245 247 249
236 267 188 184 169 217 224 209 197 209 244 247 234 247 249 242 231 230 228 233 233 235 245 244 236 239 235 232 232 233 234 233 236 236 234 235 236 238 239 242 244 246 248 250
197 205 198 144 202 195 202 227 227 268 205 242 258 254 241 237 225 239 246 236 232 232 228 241 236 231 236 232 229 230 231 232 232 234 235 236 237 237 240 242 245 247 250 254
206 224 243 228 151 220 224 224 218 228 225 227 255 264 215 242 232 236 248 241 233 235 229 230 230 224 225 225 225 226 228 229 231 232 234 236 238 240 242 244 247 251 252 256
173 205 239 249 243 229 219 218 223 232 270 236 232 254 214 280 283 254 237 242 232 219 214 213 214 216 219 221 222 225 227 227 229 231 233 236 239 242 244 248 250 256 259 258
162 194 220 235 214 151 214 222 220 221 232 242 239 256 261 287 258 269 264 237 207 203 207 213 211 210 210 214 220 221 222 225 226 228 229 232 235 239 243 246 250 253 254 253
211 248 244 255 265 269 225 222 215 217 229 228 245 243 258 256 274 266 260 224 190 195 202 207 215 209 203 197 200 207 215 218 219 221 224 227 230 234 237 238 239 241 241 245
181 247 224 267 270 254 251 249 224 221 227 234 249 258 276 267 250 239 243 233 210 203 204 206 206 201 195 191 194 195 198 202 207 213 218 223 227 229 230 232 233 232 233 237
161 153 190 277 289 303 259 227 221 226 228 225 234 241 240 288 281 270 250 235 228 217 206 204 198 194 193 191 193 196 196 198 201 203 206 207 209 213 216 219 224 234 238 243
174 169 167 270 346 272 274 213 214 216 228 225 237 242 224 242 273 291 293 257 240 228 211 199 191 189 188 181 175 178 180 181 183 185 190 196 202 208 214 218 224 231 236 237
205 192 240 239 223 280 279 253 218 214 242 229 233 240 241 239 253 279 274 258 238 223 202 180 165 166 168 166 168 173 177 182 186 190 193 199 205 212 217 220 221 224 227 227
207 209 206 181 230 257 28 235 198 197 257 223 221 228 221 194 227 230 228 242 225 207 189 174 166 165 167 168 175 181 186 191 195 197 200 205 211 213 215 217 220 225 227 229
184 202 218 229 242 264 241 216 153 182 260 204 214 218 211 191 214 220 226 221 212 199 188 180 176 175 176 178 184 188 192 195 198 203 205 209 215 219 222 227 232 235 235 233
190 192 213 224 239 264 176 174 177 233 336 90 195 215 213 219 216 226 231 216 201 191 185 184 183 182 181 182 187 192 194 198 202 206 212 222 225 226 225 222 221 221 222 224
225 199 192 200 223 212 198 224 217 327 252 249 211 230 217 215 207 213 211 195 194 188 184 185 188 184 184 190 194 200 197 200 203 203 202 200 197 195 196 199 203 209 218 230
237 211 237 326 231 231 255 248 261 284 305 286 272 279 237 205 203 204 206 204 189 184 181 179 181 182 180 182 184 188 187 183 178 178 175 170 162 154 148 144 144 148 153 166
195 157 214 251 277 309 255 263 275 274 264 282 310 300 258 215 191 187 184 179 179 177 174 174 176 177 172 169 168 167 164 159 157 152 146 141 139 137 138 140 139 143 157 171
183 188 204 242 63 293 289 289 299 288 280 269 272 279 234 213 196 186 177 174 175 172 172 169 169 168 162 159 157 153 145 140 149 142 138 135 136 138 139 134 138 134 98 354
Wind_Speed_850mb
17 10 31 33 25 15 6 14 19 3 5 2 14 34 18 45 52 48 63 72 81 93 91 85 88 91 91 97 96 92 90 87 81 80 80 76 74 69 66 62 56 53 52 50
1 34 7 11 18 32 25 25 28 6 6 3 18 41 24 31 55 49 61 77 83 93 98 91 91 94 99 98 100 99 98 95 90 87 82 78 78 76 69 66 65 60 57 55
33 11 39 24 15 30 38 43 26 18 6 11 8 41 33 23 56 59 68 76 88 93 95 103 102 100 101 103 104 103 104 102 97 93 88 85 83 81 81 80 76 69 63 60
26 47 9 16 36 30 40 26 24 24 10 20 8 30 42 19 39 37 68 69 79 101 107 94 101 105 107 105 104 100 103 106 105 97 97 93 92 91 91 87 79 72 68 65
18 15 33 40 37 29 28 12 16 29 29 25 34 12 44 23 37 49 35 67 80 103 111 116 105 99 106 107 104 105 100 101 104 101 102 96 95 91 82 84 82 76 71 69
17 5 14 16 32 36 10 17 12 16 24 23 56 32 56 38 50 36 29 58 84 96 114 113 123 117 109 104 106 106 106 102 97 95 98 100 95 93 86 86 83 79 76 71
17 27 6 9 12 17 22 15 8 9 11 25 21 27 54 17 31 48 32 48 75 89 98 111 114 111 108 108 109 108 106 102 96 92 98 99 92 91 88 84 82 81 75 73
24 11 43 18 43 10 25 26 10 14 13 21 7 22 41 32 75 88 74 75 67 80 88 94 114 116 110 109 107 106 104 100 99 98 97 92 88 88 86 86 81 81 75 71
17 17 4 6 10 31 14 22 29 22 12 8 10 19 32 34 27 35 64 69 76 71 79 91 102 106 115 116 109 101 103 102 98 94 94 92 86 85 85 85 82 79 74 71
7 8 11 12 10 27 36 8 14 20 31 49 18 27 31 9 37 46 39 54 75 89 63 74 86 90 101 110 107 100 96 99 93 93 92 91 85 81 80 84 84 78 73 68
10 9 5 16 26 35 19 23 19 8 12 23 30 24 37 38 21 34 41 72 84 81 90 58 73 77 83 101 100 95 94 97 96 91 87 88 84 83 82 81 80 78 72 66
46 8 25 43 6 27 37 40 47 21 36 16 24 46 7 20 36 40 47 63 78 73 73 62 54 65 71 85 91 94 90 93 88 84 83 80 80 82 80 78 78 75 70 64
25 19 17 8 7 10 30 47 44 46 9 43 35 38 15 12 19 47 45 61 64 57 57 62 56 54 67 76 84 88 85 84 84 83 78 73 72 73 73 73 73 71 66 63
42 11 17 28 8 10 24 39 49 44 28 43 38 66 43 17 20 23 42 51 45 47 56 60 59 59 54 56 75 87 80 74 74 76 74 74 71 70 70 69 68 65 63 62
15 22 21 39 38 28 33 47 56 52 65 34 65 51 47 36 35 26 47 47 43 49 50 53 61 62 52 44 47 60 67 67 67 69 69 69 67 66 64 62 61 61 61 62
8 14 10 36 28 37 49 43 48 60 66 59 75 61 17 23 30 28 46 42 47 56 54 54 59 61 59 54 50 50 53 55 56 58 58 59 59 58 56 55 53 54 56 58
10 7 3 13 11 23 37 68 52 61 61 63 56 81 22 18 21 23 45 53 55 53 55 57 60 58 55 54 51 50 51 51 50 49 48 47 45 45 45 45 44 47 47 48
9 7 5 13 5 32 19 26 61 64 55 60 70 48 44 32 65 36 41 46 53 53 53 55 56 52 49 49 50 49 48 47 46 45 43 41 40 39 38 37 35 36 37 39
28 13 8 7 15 36 59 14 32 38 69 62 68 57 46 52 42 80 53 63 63 57 49 46 49 53 53 51 51 49 47 44 43 41 39 38 37 35 33 31 32 34 36 36
28 28 18 6 12 35 7 8 54 28 55 54 63 59 56 32 16 30 88 94 60 54 50 54 54 52 49 48 44 42 42 42 41 39 36 34 33 30 29 31 34 35 34 31
11 17 37 32 23 17 13 14 45 30 23 34 75 74 64 32 59 68 64 61 54 56 60 59 55 52 49 46 45 44 44 44 39 37 37 35 31 30 29 29 28 27 27 28
25 17 19 24 21 27 13 26 49 27 26 4 47 69 66 93 84 75 66 68 63 68 65 61 58 54 49 45 43 44 41 39 38 35 31 31 29 27 25 25 26 26 25 25
13 16 10 21 13 8 29 12 62 15 21 19 46 77 87 87 92 95 73 73 75 74 75 68 58 53 49 49 47 44 43 38 35 32 30 28 26 23 22 21 19 17 14 13
10 10 14 2 13 19 30 57 40 29 23 29 33 32 48 83 97 100 73 69 72 74 73 68 59 52 51 48 42 36 36 35 32 29 28 27 24 23 22 20 18 15 13 10
11 11 14 21 16 12 28 24 28 34 31 32 26 33 36 70 70 83 85 83 78 71 65 63 59 55 50 47 44 40 36 34 35 37 36 36 33 30 27 23 19 14 10 8
10 15 14 18 1 4 8 19 25 27 25 21 25 26 34 64 81 75 78 77 74 69 66 64 59 56 54 49 48 49 47 40 39 42 40 36 31 27 23 17 13 8 1 5
Wind_Direction_850mb
184 203 215 214 217 235 334 245 243 145 187 281 246 271 250 257 260 247 253 249 245 242 245 243 240 234 233 234 232 232 230 228 225 224 226 226 227 225 227 228 228 229 231 235
18 241 166 198 212 233 241 262 263 311 234 294 278 272 251 244 258 248 248 251 250 247 245 242 243 236 232 234 235 232 233 231 230 229 230 232 233 232 235 235 234 232 233 235
213 221 200 207 212 231 237 240 252 253 5 254 319 283 265 241 257 252 255 252 254 255 252 246 243 241 236 233 234 234 232 233 232 232 231 233 235 237 237 238 235 234 236 237
230 236 198 196 225 207 242 217 246 267 277 262 150 278 262 221 245 241 237 237 244 251 250 250 247 242 240 238 235 236 235 234 234 231 232 232 233 233 235 237 238 238 238 238
219 181 208 223 218 207 237 169 204 231 246 260 251 258 276 193 235 245 234 232 234 248 253 246 243 245 244 240 237 235 235 234 234 232 234 234 234 237 240 240 241 241 241 241
224 184 197 212 215 206 171 251 288 257 233 235 239 219 273 241 240 264 232 236 236 240 251 245 245 247 247 241 237 235 233 233 233 232 233 235 235 236 237 239 240 242 243 242
211 231 246 218 184 208 201 197 233 231 213 243 235 221 243 253 252 234 242 238 242 245 249 245 242 239 238 236 235 234 234 233 233 233 234 235 237 237 239 241 243 244 243 244
203 274 212 183 216 197 205 198 205 223 227 251 214 216 238 238 243 250 257 252 247 245 244 238 242 239 235 232 234 233 233 233 233 232 237 236 238 238 239 242 244 246 247 248
178 243 204 161 167 186 190 224 226 274 248 264 218 272 287 264 255 248 244 240 239 250 248 244 242 241 235 231 233 233 233 232 234 234 235 238 238 237 239 241 244 245 247 249
236 267 188 184 169 217 224 209 197 209 244 247 234 247 249 242 231 230 228 233 233 235 245 244 236 239 235 232 232 233 234 233 236 236 234 235 236 238 239 242 244 246 248 250
197 205 198 144 202 195 202 227 227 268 205 242 258 254 241 237 225 239 246 236 232 232 228 241 236 231 236 232 229 230 231 232 232 234 235 236 237 237 240 242 245 247 250 254
206 224 243 228 151 220 224 224 218 228 225 227 255 264 215 242 232 236 248 241 233 235 229 230 230 224 225 225 225 226 228 229 231 232 234 236 238 240 242 244 247 251 252 256
173 205 239 249 243 229 219 218 223 232 270 236 232 254 214 280 283 254 237 242 232 219 214 213 214 216 219 221 222 225 227 227 229 231 233 236 239 242 244 248 250 256 259 258
162 194 220 235 214 151 214 222 220 221 232 242 239 256 261 287 258 269 264 237 207 203 207 213 211 210 210 214 220 221 222 225 226 228 229 232 235 239 243 246 250 253 254 253
211 248 244 255 265 269 225 222 215 217 229 228 245 243 258 256 274 266 260 224 190 195 202 207 215 209 203 197 200 207 215 218 219 221 224 227 230 234 237 238 239 241 241 245
181 247 224 267 270 254 251 249 224 221 227 234 249 258 276 267 250 239 243 233 210 203 204 206 206 201 195 191 194 195 198 202 207 213 218 223 227 229 230 232 233 232 233 237
161 153 190 277 289 303 259 227 221 226 228 225 234 241 240 288 281 270 250 235 228 217 206 204 198 194 193 191 193 196 196 198 201 203 206 207 209 213 216 219 224 234 238 243
174 169 167 270 346 272 274 213 214 216 228 225 237 242 224 242 273 291 293 257 240 228 211 199 191 189 188 181 175 178 180 181 183 185 190 196 202 208 214 218 224 231 236 237
205 192 240 239 223 280 279 253 218 214 242 229 233 240 241 239 253 279 274 258 238 223 202 180 165 166 168 166 168 173 177 182 186 190 193 199 205 212 217 220 221 224 227 227
207 209 206 181 230 257 28 235 198 197 257 223 221 228 221 194 227 230 228 242 225 207 189 174 166 165 167 168 175 181 186 191 195 197 200 205 211 213 215 217 220 225 227 229
184 202 218 229 242 264 241 216 153 182 260 204 214 218 211 191 214 220 226 221 212 199 188 180 176 175 176 178 184 188 192 195 198 203 205 209 215 219 222 227 232 235 235 233
190 192 213 224 239 264 176 174 177 233 336 90 195 215 213 219 216 226 231 216 201 191 185 184 183 182 181 182 187 192 194 198 202 206 212 222 225 226 225 222 221 221 222 224
225 199 192 200 223 212 198 224 217 327 252 249 211 230 217 215 207 213 211 195 194 188 184 185 188 184 184 190 194 200 197 200 203 203 202 200 197 195 196 199 203 209 218 230
237 211 237 326 231 231 255 248 261 284 305 286 272 279 237 205 203 204 206 204 189 184 181 179 181 182 180 182 184 188 187 183 178 178 175 170 162 154 148 144 144 148 153 166
195 157 214 251 277 309 255 263 275 274 264 282 310 300 258 215 191 187 184 179 179 177 174 174 176 177 172 169 168 167 164 159 157 152 146 141 139 137 138 140 139 143 157 171
183 188 204 242 63 293 289 289 299 288 280 269 272 279 234 213 196 186 177 174 175 172 172 169 169 168 162 159 157 153 145 140 149 142 138 135 136 138 139 134 138 134 98 354